Regional Weather Roundup
Issued by NWS

Home | Current Version | Previous Version | Graphics & Text | Print | Product List | Glossary On
Versions: 1 2 3 4 5 6 7 8 9 10 11 12 13 14 15 16 17 18 19 20 21 22 23 24 25 26 27 28 29 30 31 32 33 34 35 36 37 38 39 40 41 42 43 44 45 46 47 48 49 50
000
ASUS43 KLMK 301810
RWRKY
KENTUCKY REGIONAL WEATHER ROUNDUP
NATIONAL WEATHER SERVICE LOUISVILLE KY
200 PM EDT SAT APR 30 2016

NOTE "FAIR" INDICATES FEW OR NO CLOUDS BELOW 12,000 FEET
WITH NO SIGNIFICANT WEATHER AND/OR OBSTRUCTIONS TO VISIBILITY.

KYZ001>023-026-027-061>063-070>075-301900-
WESTERN AND SOUTH CENTRAL KENTUCKY

CITY           SKY/WX    TMP DP  RH WIND       PRES   REMARKS
PADUCAH        CLOUDY    69  62  78 S3        29.82S
HENDERSON      CLOUDY    66  61  82 SE9       29.86R
OWENSBORO      CLOUDY    65  64  96 SE14      29.87F
HOPKINSVILLE   PTSUNNY   66  65  97 SE9       29.87F
BOWLING GREEN  CLOUDY    68  63  84 E5        29.92F
GLASGOW        CLOUDY    65  60  84 CALM      29.94S
$$

KYZ024-025-028>034-038-045-046-053-301900-
NORTH CENTRAL KENTUCKY

CITY           SKY/WX    TMP DP  RH WIND       PRES   REMARKS
LOUISVILLE/SDF LGT RAIN  62  59  90 SE14      29.95F FOG
LOUISVILLE/LOU LGT RAIN  61  58  90 SE8       29.95F FOG
FORT KNOX      LGT RAIN  61  59  94 E9        29.92F
$$

KYZ035>037-039>044-047>052-055>060-089>105-301900-
NORTHEAST KENTUCKY

CITY           SKY/WX    TMP DP  RH WIND       PRES   REMARKS
LEXINGTON      CLOUDY    61  57  87 SE14      29.98F
COVINGTON      LGT RAIN  56  54  93 E12       29.97F FOG
FRANKFORT      CLOUDY    61  58  90 CALM      29.97S
$$

KYZ054-064>069-076>088-106>120-301900-
SOUTHEAST KENTUCKY

CITY           SKY/WX    TMP DP  RH WIND       PRES   REMARKS
JACKSON        LGT RAIN  61  58  90 CALM      30.03F
LONDON         RAIN      62  58  86 E6        30.02F FOG
SOMERSET       RAIN      59  59 100 E6        30.00F
MIDDLESBORO    RAIN      64  61  91 W5        30.04R
MONTICELLO     CLOUDY    62  60  93 W6        29.99F
$$




USA.gov is the U.S. government's official web portal to all federal, state and local government web resources and services.